Погода в Саскылахе

Россия / Республика Саха (Якутия)     71°57′55″N   114°05′35″E
темп.,
°C
ветер,
м/с
пор.,
м/с
влажн.,
%
обл.,
%
осадки,
мм/ч
давл.,
гПа
погр.,
м
4 августа, ср
ср400:00+14св47735 0.0 1021139
03:00+10св337752 0.0 102249
06:00+11св366056 0.0 1023187
09:00+16св464161 0.0 1023403
12:00+19всв673436 0.0 1022711
15:00+21всв673043 0.0 1022943
18:00+21всв672917 0.0 1021973
21:00+18всв593944 0.0 1022340
5 августа, чт
чт500:00+12всв485462 0.0 1023127
03:00+9в385094 0.0 1024132
06:00+10в39456 0.0 1024254
09:00+14в58356 0.0 1025445
12:00+18в682815 0.0 1024778
15:00+20в782767 0.0 10231041
18:00+21в782828 0.0 10241087
21:00+18в59395 0.0 1024347
6 августа, пт
пт600:00+12в510575 0.0 1025175
03:00+9в38685 0.0 1025135
06:00+9в48615 0.0 1026259
09:00+13в56440 0.0 1025512
12:00+16всв66370 0.0 1024935
15:00+17всв67370 0.0 10221334
18:00+16св783997 0.0 10221214
21:00+12св6852100 0.0 1022776
7 августа, сб
сб700:00+9св6965100 0.0 1021374
03:00+6св4876100 0.0 1021285
06:00+6св4677100 0.0 1021330
09:00+8св45670 0.0 1020578
12:00+12св445533 0.0 1019930
15:00+15св334997 0.0 10181182
18:00+16всв22475 0.0 10181183
21:00+15св22555 0.0 101741
8 августа, вс
вс800:00+10ссв237132 0.0 101713
03:00+8св338249 0.0 101724
06:00+10с3572100 0.0 1017202
09:00+12с456714 0.0 1016359
12:00+15с45615 0.0 1016750
15:00+17ссз44500 0.0 10151052
18:00+17ссз43460 0.0 10161343
21:00+15с33560 0.0 101689